sat.trackr.live / text

‹ back to catalog

STARLINK-11714 [DTC]

NORAD 64134 · 2025-111M

PAYLOAD ACTIVE UNKNOWN

§ Identity

Operator
Country
US
Launch date
2025-05-24
Launch site
AFETR
Launch vehicle
Mass (kg)
RCS (m²)

Purposes: comms

External: N2YO · Heavens-Above · Gunter

§ Orbital elements

Epoch: 2026-05-24T17:36:32.975136Z

Period
91.67 min
Inclination
43.0005°
Eccentricity
0.0001410
Mean motion
15.70859982 rev/d
Perigee alt
355.5 km
Apogee alt
357.4 km
Semi-major
6,734.6 km
B*
1.1375e-3
RAAN
235.0499°
Arg perigee
271.8704°
Mean anomaly
88.2003°
Rev number
5,860

§ Raw data

STARLINK-11714 [DTC]1 64134U 25111M   26144.73371499  .00148261  00000+0  11375-2 0  99982 64134  43.0005 235.0499 0001410 271.8704  88.2003 15.70859982 58603

JSON: /api/v1/satellites/64134 · /tle

For live sub-satellite position, see the globe view (requires WebGL).

§ Visibility from observer

Set your observer location to see the next 7 days of passes ≥ 10°. The values pass through the URL so the page stays shareable.

No JS? Fill the form by hand. The geolocation button needs JavaScript.